Location: Waco, TX
(31.5480°N, 97.1670°W)
Time: 17:50:59
(UTC-05:00)

ISS - Pass Details

Date: 18 June 2018
Orbit: 403 x 407 km, 51.6° (Epoch: 21 June)

Event Time Altitude Azimuth Distance (km) Brightness Sun altitude
Rises 19:33:56 0° 289° (WNW) 2,319 2.3 11.2°
Reaches altitude 10° 19:37:39 10° 245° (WSW) 1,452 -0.3 10.5°
Maximum altitude 19:38:12 10° 235° (SW) 1,432 -0.5 10.4°
Drops below altitude 10° 19:38:44 10° 226° (SW) 1,449 -0.6 10.3°
Sets 19:42:27 0° 181° (S) 2,301 -0.2 9.5°
